Volver al catálogo

STARLINK-5523

ActivoComunicacionesVLEO
NORAD 56470·PAYLOAD·🇺🇸 United States

Lanzado May 10, 2023 desde Vandenberg Space Force Base

Loading…

Próximos Pases (próximas 24 horas)

TLE

ActualizadoSource: CelesTrak SupGP

Época: Sep 15, 2026, 03:08 UTC

1 56470C 23064Y   26258.13104167  .00576570  00000+0  47878-1 0  2585
2 56470  70.0018   6.9567 0003038 270.8874  33.7667 14.98394486    12

Sigue STARLINK-5523 en tiempo real con AllMySat

Download on the App Store